Regional Weather Roundup
Issued by NWS

Home | Current Version | Previous Version | Graphics & Text | Print | Product List | Glossary On
Versions: 1 2 3 4 5 6 7 8 9 10 11 12 13 14 15 16 17 18 19 20 21 22 23 24 25 26 27 28
000
ASUS45 KTFX 232210
RWRMT
MONTANA REGIONAL WEATHER ROUNDUP
NATIONAL WEATHER SERVICE GREAT FALLS MT
300 PM MST MON JAN 23 2017

NOTE: "FAIR" INDICATES FEW OR NO CLOUDS BELOW 12000 FEET WITH NO
SIGNIFICANT WEATHER AND/OR OBSTRUCTIONS TO VISIBILITY.

MTZ001>007-043-232300-
WEST OF THE DIVIDE

CITY           SKY/WX    TMP DP  RH WIND       PRES   REMARKS
KALISPELL      MOSUNNY   31  20  63 CALM      29.71S
MISSOULA       CLOUDY    33  26  75 N12       29.69S WCI  24
BUTTE          CLOUDY    24  14  65 N5        29.59S
MULLAN PASS    CLOUDY    25  21  85 CALM      29.60S
ANACONDA         N/A     27  16  63 N15G21    29.63R WCI  15
DEER LODGE       N/A     25  16  68 N10       29.67S WCI  15
EUREKA           N/A     32  23  69 CALM      29.75S
HAMILTON         N/A     25  18  74 N3        29.66S
PLAINS           N/A     32  27  82 CALM      29.75S
RONAN            N/A     28  26  92 CALM      29.78R
$$

MTZ008-052>055-232300-
SOUTHWEST MONTANA

CITY           SKY/WX    TMP DP  RH WIND       PRES   REMARKS
BOZEMAN        CLOUDY    23  20  88 S5        29.65S
DILLON         CLOUDY    18  14  84 CALM      29.57S
W YELLOWSTONE  CLOUDY    28  19  69 N5        29.45F
ENNIS          CLOUDY    23  19  86 N20G28    29.60S WCI   8
TWIN BRIDGES     N/A     24  15  68 N21       29.61F WCI   9
$$

MTZ009-010-012-014-046-048-049-054-232300-
EAST SLOPES AND CENTRAL MONTANA

CITY           SKY/WX    TMP DP  RH WIND       PRES   REMARKS
CUT BANK       CLOUDY    21  18  88 N9        29.76S WCI  11
GREAT FALLS    CLOUDY    21  16  81 NW7       29.76R WCI  12
MALMSTROM AFB  CLOUDY    21  19  93 NW6       29.78R WCI  14
HELENA         CLOUDY    26  19  74 N9        29.72S WCI  17
BOWMANS CRNR   CLOUDY    19  17  94 NE7       29.71R WCI  10
CHOTEAU          N/A     21  21 100 N8        29.77R FOG     WCI  12
CONRAD           N/A     20  19  96 NW8       29.80S WCI  10
POWER          FLURRIES  18  17  95 N6        29.75R WCI  10
RAYNESFORD     FLURRIES  21  20  96 NW7       29.74R WCI  13
ULM            PTSUNNY   22  18  84 MISG      29.77R
$$

MTZ011-013-016-021-045-047-050-051-232300-
NORTH CENTRAL MONTANA

CITY           SKY/WX    TMP DP  RH WIND       PRES   REMARKS
HAVRE          CLOUDY    22  21  96 N6        29.80S WCI  14
LEWISTOWN      CLOUDY    22  20  92 NW10      29.70S WCI  11
CHINOOK          N/A     23  19  86 NW6       29.81S WCI  16
DENTON         FLURRIES  21  20  96 NW7       29.71R WCI  13
FORT BENTON      N/A     25  19  80 MISG      29.82R
GEYSER         FLURRIES  22  20  93 NE7       29.72R WCI  13
GRASS RANGE    CLOUDY    27  20  75 NW14      29.67R WCI  15
JUDITH GAP     PTSUNNY   23  19  86 N24       29.64S WCI   6
ROY            FLURRIES  24  23  97 MISG      29.71R
STANFORD       FLURRIES  22  22  96 N13       29.69R WCI  10
WINIFRED       FLURRIES  21  20  98 NW12      29.73R WCI   9
$$

MTZ017>020-022>027-061-062-232300-
NORTHEAST MONTANA

CITY           SKY/WX    TMP DP  RH WIND       PRES   REMARKS
GLASGOW        FLURRIES  23  19  85 NW12      29.78R WCI  12
JORDAN           N/A     28  22  78 CALM      29.74
SIDNEY         CLOUDY    26  23  88 NE6       29.78R WCI  19
WOLF POINT     LGT SNOW  27  22  81 E3        29.80R
PLENTYWOOD       N/A     21  18  86 NW13      29.76R WCI   9
POPLAR           N/A     25  19  80 NE3       29.80R
SCOBEY           N/A     22  13  68 W9        29.75R WCI  12
$$

MTZ028>42-056>058-232300-
SOUTHCENTRAL AND SOUTHEAST MONTANA

CITY           SKY/WX    TMP DP  RH WIND       PRES   REMARKS
BAKER          CLOUDY    21  19  92 S3        29.71R FOG
BILLINGS       CLOUDY    24  20  84 S3        29.70R
LIVINGSTON     CLOUDY    28  19  69 E8        29.62R WCI  20
MILES CITY     CLOUDY    23  20  88 NE6       29.74R FOG     WCI  16
BIG TIMBER     CLOUDY    28  21  74 NE6       29.67R WCI  22
EKALAKA          N/A     17  13  84 CALM      29.68R
FORSYTH          N/A     25  25 100 CALM      29.73R
HARLOWTON      CLOUDY    26  20  79 N25       29.64R WCI  10
LAUREL           N/A     23  17  78 CALM      29.71R
$$

REGIONAL REPORTS...DAKOTAS

CITY           SKY/WX    TMP DP  RH WIND       PRES   REMARKS
WILLISTON      CLOUDY    23  20  88 N6        29.79R WCI  16
MINOT          CLOUDY    25  19  78 W13       29.75S WCI  14
DICKINSON      CLOUDY    23  20  88 CALM      29.71R
BEACH          CLOUDY    23  23 100 E3        29.76R
CROSBY         FLURRIES  21  19  93 NW13      29.78S WCI   9
TIOGA          CLOUDY    19  19 100 NW15      29.77R WCI   5
WATFORD CITY   CLOUDY    25  21  86 N6        29.77R WCI  18
BISMARCK       CLOUDY    31  24  75 SW6       29.78R WCI  25
GRAND FORKS    CLOUDY    30  22  72 W14       29.80R WCI  19
FARGO          CLOUDY    35  27  72 W6        29.81R WCI  30
BUFFALO SD       N/A     25  21  85 CALM      29.61R
RAPID CITY     CLOUDY    24  21  88 N16       29.62R WCI  11
$$

REGIONAL REPORTS...WYOMING/IDAHO/WASHINGTON

CITY           SKY/WX    TMP DP  RH WIND       PRES   REMARKS
GILLETTE       SUNNY     32  22  66 N10       29.58S WCI  24
SHERIDAN       CLOUDY    27  20  75 W13       29.63R WCI  16
BUFFALO WY     SUNNY     30  18  60 N9        29.59R WCI  22
CODY           CLOUDY    24  18  77 NE14      29.57F WCI  12
YELLOWSTONE LA   N/A     20  13  74 CALM      29.46S
IDAHO FALLS    LGT SNOW  30  29  96 N12       29.42F FOG     WCI  20
SALMON         CLOUDY    16  14  93 CALM      29.61S
BOISE            N/A     32  26  78 N13       29.62R WCI  22
SPOKANE        CLOUDY    34  29  82 NE5       29.74S
$$

REGIONAL REPORTS...ALBERTA

CITY           SKY/WX    TMP DP  RH WIND       PRES   REMARKS
EDMONTON       PTSUNNY   14   7  73 N2        29.86S
CALGARY        CLOUDY    25  23  93 S6        29.75R FOG     WCI  18
LETHBRIDGE     PTSUNNY   25  19  80 SW8       29.79R WCI  16
MEDICINE HAT   CLOUDY    19  18  93 W8        29.84R WCI   9
WATERTON GATE    N/A     25  18  74 NE3         N/A
CARDSTON         N/A     28  18  64 SE2         N/A
MILK RIVER       N/A     25  25 100 NW3         N/A
$$

REGIONAL REPORTS...SASKATCHEWAN

CITY           SKY/WX    TMP DP  RH WIND       PRES   REMARKS
SWIFT CURRENT  FLURRIES  16  14  93 NW14      29.74S WCI   1
REGINA         CLOUDY    19  16  86 NW15      29.76R WCI   5
SASKATOON      FLURRIES  14   9  79 NW7       29.83R WCI   4
VAL MARIE        N/A     21  18  86 NW13        N/A  WCI   9
ROCKGLEN         N/A     19  18  93 NW9         N/A  WCI   9
ASSINIBOIA       N/A     14  12  92 CALM        N/A
$$




USA.gov is the U.S. government's official web portal to all federal, state and local government web resources and services.